Regional Weather Roundup
Issued by NWS

Current Version | Previous Version | Text Only | Print | Product List | Glossary On
Versions: 1 2 3 4 5 6 7 8 9 10 11 12 13 14 15 16 17 18 19 20 21 22 23 24 25 26 27
000
ASUS45 KPSR 010110
RWRAZ

ARIZONA HOURLY REGIONAL WEATHER ROUNDUP
NATIONAL WEATHER SERVICE PHOENIX AZ
600 PM MST TUE MAY 31 2016

NOTE: FAIR INDICATES FEW OR NO CLOUDS BELOW 12,000 FEET WITH NO
SIGNIFICANT WEATHER AND/OR OBSTRUCTIONS TO VISIBILITY.

AZZ001>003-036-010200-
NORTHWEST ARIZONA

CITY           SKY/WX    TMP DP  RH WIND       PRES   REMARKS
KINGMAN        SUNNY     91  23   8 N18G25    29.83F
$$

AZZ004>008-015-016-018-010200-
NORTH CENTRAL ARIZONA

CITY           SKY/WX    TMP DP  RH WIND       PRES   REMARKS
GRAND CANYON   SUNNY     74  23  15 N6        30.04S
WILLIAMS       PTSUNNY   72  25  17 SW15      30.11R
PRESCOTT       MOSUNNY   82  19   9 CALM      29.92F
FLAGSTAFF      MOSUNNY   71  21  15 VRB3      30.04F
PAYSON         PTSUNNY   77  21  12 CALM      29.96F
PAGE           SUNNY     88  21   8 NE6       29.84F
$$

AZZ009>014-017-010200-
NORTHEAST ARIZONA

CITY           SKY/WX    TMP DP  RH WIND       PRES   REMARKS
WINSLOW        SUNNY     85  15   7 N10       29.89F
SAINT JOHNS    MOSUNNY   76  27  16 S12       29.95R
WINDOW ROCK    MOSUNNY   77  19  11 VRB5      30.00S
SHOW LOW       PTSUNNY   64  30  27 SW12      30.04R
$$

AZZ023-010200-
GREATER PHOENIX AREA

CITY           SKY/WX    TMP DP  RH WIND       PRES   REMARKS
PHOENIX        PTSUNNY   97  24   7 W12       29.65F
BUCKEYE        SUNNY     95  28   9 S8        29.69S
GLENDALE       PTSUNNY   99  18   5 S10G16    29.67F
LUKE AFB       SUNNY     98  21   6 SW15      29.65F
DEER VALLEY    MOSUNNY   95  23   7 SW13      29.67F
SCOTTSDALE     MOSUNNY   96  21   6 SW10      29.70F
MESA-FALCON    MOSUNNY  N/A N/A N/A W10       29.66F
MESA-GATEWAY   PTSUNNY   93  27   9 W10       29.69F
CHANDLER       PTSUNNY   95  21   7 SW8       29.67F
$$

AZZ027-028-010200-
SOUTHWEST MARICOPA COUNTY AND PINAL COUNTY

CITY           SKY/WX    TMP DP  RH WIND       PRES   REMARKS
CASA GRANDE    SUNNY     93  30  10 SW9       29.71F
GILA BEND      MOSUNNY   97  19   6 VRB1      29.67F
$$

AZZ503-504-507>509-010200-
SOUTHEAST ARIZONA

CITY           SKY/WX    TMP DP  RH WIND       PRES   REMARKS
TUCSON         MOSUNNY   91  13   5 W5        29.78S
DAVIS-MONTHAN  SUNNY     91  16   6 NW2       29.76S
RYAN FIELD     SUNNY     91  23   8 NW7       29.77S
NOGALES        MOSUNNY   85  16   7 SW7       29.86S
SIERRA VISTA   PTSUNNY   78  15   9 SW14      29.90S
DOUGLAS        FAIR      83  18   9 CALM      29.86R
SAFFORD        MOSUNNY   88  30  12 NE7       29.77S
$$

AZZ020-021-025-026-031-010200-
SOUTHWEST ARIZONA

CITY           SKY/WX    TMP DP  RH WIND       PRES   REMARKS
YUMA           MOSUNNY   98  38  12 S15       29.65F
$$

CAZ031-033-041-043-047-048-061-010200-
SOUTHERN CALIFORNIA

CITY           SKY/WX    TMP DP  RH WIND       PRES   REMARKS
DOWNTOWN L.A.  PTSUNNY   68  58  70 CALM      29.83S
L.A. AIRPORT   CLOUDY    63  57  81 W12       29.84F
SAN DIEGO      CLOUDY    65  57  75 W7        29.86F
BURBANK        SUNNY     69  57  65 S12       29.82S
ONTARIO        MOSUNNY   75  56  51 SW12      29.81F
RIVERSIDE      SUNNY     76  56  49 W12       29.81S
PALM SPRINGS   MOSUNNY  101  53  20 NW15      29.65F
EL CENTRO NAS  MOSUNNY  101  38  11 S6        29.63F
IMPERIAL       SUNNY    101  42  13 W5        29.61F
BLYTHE         SUNNY    101  35  10 S8        29.63F
NEEDLES        SUNNY    105  31   7 NE9       29.63F
$$

NVZ020-UTZ003-010200-
SOUTHERN NEVADA-UTAH

CITY           SKY/WX    TMP DP  RH WIND       PRES   REMARKS
LAS VEGAS      MOSUNNY   96  30   9 E3        29.69F
SALT LAKE CITY MOSUNNY   76  26  15 NW9       30.02S
$$

NMZ009-TXZ055-010200-
NEW MEXICO-WEST TEXAS

CITY           SKY/WX    TMP DP  RH WIND       PRES   REMARKS
ALBUQUERQUE    CLOUDY    67  39  35 E26G41    30.00R
EL PASO        CLOUDY    79  40  24 SW9       29.87R
$$


........................KEY........................
SKY/WX - SKY CONDITION/WEATHER
TMP    - TEMPERATURE IN FAHRENHEIT
DP     - DEW POINT IN FAHRENHEIT
RH     - RELATIVE HUMIDITY IN PERCENT
WIND   - DIRECTION AND SPEED IN MILES PER HOUR (MPH)
VRB    - VARIABLE WIND DIRECTION
PRES   - MEAN SEA LEVEL PRESSURE IN INCHES OF MERCURY
         F - FALLING PRESSURE   R - RISING PRESSURE
         S - STEADY PRESSURE
VSB    - VISIBILITY IN MILES
HX     - HEAT INDEX IN FAHRENHEIT
WCI    - WIND CHILL INDEX IN FAHRENHEIT
TC     - TEMPERATURE IN CELSIUS WHICH IS ALSO KNOWN AS
         TEMPERATURE IN CENTIGRADE
AFB    - AIR FORCE BASE
         LUKE AFB IS LUKE AIR FORCE BASE
         DAVIS-MONTHAN IS DAVIS-MONTHAN AIR FORCE BASE
NAS    - NAVAL AIR STATION
         EL CENTRO NAS IS EL CENTRO NAVAL AIR STATION
N/A    - NOT AVAILABLE





USA.gov is the U.S. government's official web portal to all federal, state and local government web resources and services.